CamptonHillsWeather.com

Find the Weather for any City, State  
or Zipcode, or Country:

Campton Hills, IL Weather
Local Radar

Local Radar

Graphs, Details
Graphs and Gauges
Detailed Weather
Detailed Reports
Ajax Version (old)
Central Kane Co Summary
Davis Current Weather Graphs
Davis 24 Hour Weather History

CW3778 Data

Weather Underground
Maps
Temperature
Heat Index
Windchill
Humidity
Radar
Dew Point
Wind
Visibility
Visible Satellite
Satellite
Fronts
Snow Depth
Jet Stream
Flight Rules
Forecast Maps
Temperature Forecast
Maximum Temperature Forecast
Minimum Temperature Forecast
Dewpoint Forecast
Prevalent Weather
12Hr Probability of Precip.
Sky Cover
Health Maps
UV Forecast
Air Quality
Peak Air Quality Index
Weather Station
Davis Instruments Vantage Pro
Current Conditions [Select Refresh to Update]

Updated: 1:08am on 5/1/16

(location)
Currently:
45.1F

Clear
Overcast

High: 45.1 F< 
(12:49am
Low: 44.8 F 
(12:00am)
Wind: ESE 2 mph
Light Air
Gust: 9 mph
Today's High Wind: 10 mph (12:19am)
Humidity: 98%
Pressure: 29.94 in  (Steady
Pressure Rate: 0.004 in/hr
Dew Point: 44.6F
Wind Chill: 45.1 F
Heat Index (feels like): 52.0 F
Comfort Level: Cool
Temperature Rate:  0.21F/hr
 
5 Day Forecast
 
Sun Mon Tue Wed Thu
Clear Clear Clear Clear Clear
Chance Rain Mostly Cloudy Mostly Cloudy Chance Rain Mostly Cloudy
53 60 69 61 58
40 42 47 39 41

Records and Normals
 
Temperature Forecast Normal Record
High 53 66 82
(2001)
Low 40 43 30
(2005)
 
Links
 
 
Weather Advisories
Full Advisory Text...
Weather Map

Web Cam

Almanac
 
Sunrise:  
5:48am
Moonrise: 
2:46am

Moon Phase:
41%

Sunset: 
7:52pm
Moonset:  
1:55pm
 Star Chart...
Rainfall Totals
Hourly Rain 0.00 in
Daily Rain: 0.00 in
Monthly Rain: 0.00 in
Yearly Rain: 9.10 in
Normal Rain, month to date: 2.56 in
Normal Rain, year to date: 7.83 in
Link to Village of Campton Hills Map

Link to Counties of Illinois Map

Local Weather Exchange Network
Station ID City 
(Click for Map Location)
Neighborhood 
(Click for History)
Last Update (Date & Time) Temperature
 ()
Dew
Point ()
Humidity 
(%)
Wind 
(mph)
from the Wind Gust 
(mph) 
Pressure(in) Hourly
Rain(in)
KILSAINT17 Saint Charles Glen Oak Lane 04/30 22:50:28 45.3 43.0 93 0 North 0 29.98 0.00
KILGENEV5 Geneva meso_neigh2 04/30 23:13:47 45.0 44.0 96 8 SSW 12 29.88 0.00
KILSTCHA10 St. Charles Hunt Club 05/01 01:02:07 45.9 39.0 78 1 North 2 29.44 0.00
KILSAINT7 Saint Charles Silver Glen 05/01 01:02:14 48.2 48.0 99 0 ESE 2 29.56 0.00
KILSAINT9 Saint Charles Fox Chase 05/01 01:02:15 46.6 46.0 99 0 NNW 0 --- 0.00
KILGENEV6 Geneva Dover Ridge 05/01 01:02:10 45.5 45.0 97 4 NE 4 29.91 0.00
MUR354 Geneva MesoWest 05/01 00:10:00 39.0 0.0 0 9 ENE 16 0.00 0.00
KILELBUR18 Elburn Elodie Drive 05/01 00:55:46 45.9 44.0 92 0 North 0 28.43 0.00
KILSTCHA8 St. Charles Ronzheimer Ave. & S. Tyler Rd. 05/01 01:02:20 45.4 45.0 97 1 NNE 3 29.91 0.00
KILGENEV3 Geneva Mill Creek (Blackberry Way) 05/01 01:02:14 46.0 45.0 96 3 NNE 12 29.95 0.00
KILSTCHA1 St Charles CamptonHillsWeather.com Central Kane County 05/01 01:02:16 45.0 44.0 98 2 ESE 9 29.94 0.00
KILGENEV7 Geneva Eldorado Drive 05/01 01:02:13 45.1 45.0 100 0 North 0 29.84 0.00
KILBATAV13 Batavia Blackhawk Dr, Batavia 05/01 01:02:17 46.0 45.0 97 3 NE 5 29.93 0.00
KILELBUR13 Elburn Hicks Drive 04/30 22:50:23 58.5 42.0 55 0 North 0 29.76 0.00
KILBATAV1 Batavia Tri-Cities on the Fox River 04/30 22:24:15 46.0 44.0 92 0 NE 14 29.93 0.01
KILELBUR10 Elburn Prairie Valley North 04/30 22:25:52 43.9 43.0 97 6 ESE 11 29.75 0.01
KILELGIN20 Elgin Williamsburg Drive 04/30 22:51:16 44.6 43.0 93 0 North 0 29.90 0.00
KILBATAV10 Batavia Deerpath Road 05/01 01:02:06 46.2 46.0 99 0 North 0 29.92 0.00
KILELBUR17 Elburn Elburn 05/01 01:02:13 49.8 50.0 99 4 ESE 7 30.14 0.00
MD7322 Elburn APRSWXNET 05/01 00:36:00 45.0 44.0 98 2 NE 7 29.92 0.00
KDPA Chicago DuPage Official Station 05/01 00:52:00 46.0 43.0 89 14 ENE --- 29.92 ---
KARR Aurora Official Station 05/01 00:52:00 47.0 45.0 93 12 ENE --- 29.92 ---
KDKB DeKalb Official Station 05/01 00:55:00 46.0 45.0 97 14 ENE --- 29.93 ---
KORD Chicago Official Station 05/01 00:51:00 45.0 44.0 97 10 NE --- 29.92 ---
Full Advisory Text
No Warnings

Ambient Weather and Weather Underground
 Never base important decisions on this or any weather information obtained from the Internet
Updated Automatically by Ambient Weather's Virtual Weather Station  V13.01